This is the latest recevied weather packets stored in our database for station/object GW7110. If no packets are shown the sender has not sent any weather packets the latest 10 day(s).
| Time | Temp. | Humidity | Pressure | Rain* | Wind** | Luminosity | Snow |
|---|---|---|---|---|---|---|---|
| 1777379745 | 16.67° C | 94% | 30.2 hPa | 11.43 mm | - | 3 W/m² | - |
| 1777379145 | 16.67° C | 94% | 30.2 hPa | 9.4 mm | - | 3 W/m² | - |
| 1777378845 | 16.67° C | 94% | 30.2 hPa | 9.14 mm | - | 4 W/m² | - |
| 1777378545 | 16.67° C | 94% | 30.2 hPa | 7.62 mm | - | 2 W/m² | - |
| 1777378245 | 16.67° C | 94% | 30.2 hPa | 5.59 mm | - | 1 W/m² | - |
| 1777377945 | 16.67° C | 94% | 30.2 hPa | 2.29 mm | - | 1 W/m² | - |
| 1777377045 | 16.67° C | 94% | 30.1 hPa | 4.32 mm | - | 4 W/m² | - |
| 1777376745 | 16.67° C | 94% | 30.1 hPa | 4.83 mm | - | 5 W/m² | - |
| 1777376147 | 16.67° C | 94% | 30.1 hPa | 4.06 mm | - | 2 W/m² | - |
| 1777375545 | 16.67° C | 94% | 30.1 hPa | 4.57 mm | - | 2 W/m² | - |
| 1777374345 | 16.67° C | 93% | 30.1 hPa | 9.4 mm | - | 1 W/m² | - |
| 1777372545 | 16.67° C | 92% | 30.1 hPa | 9.91 mm | - | 0 W/m² | - |
| 1777372244 | 16.67° C | 92% | 30.1 hPa | 9.14 mm | - | 0 W/m² | - |
| 1777371946 | 16.67° C | 91% | 30.1 hPa | 8.64 mm | - | 0 W/m² | - |
| 1777371645 | 16.67° C | 90% | 30.2 hPa | 7.11 mm | - | 0 W/m² | - |
| 1777371344 | 16.67° C | 90% | 30.1 hPa | 6.35 mm | - | 0 W/m² | - |
| 1777371045 | 17.22° C | 88% | 30.1 hPa | 4.06 mm | - | 0 W/m² | - |
| 1777370745 | 17.22° C | 88% | 30.1 hPa | 2.79 mm | - | 0 W/m² | - |
| 1777370445 | 17.22° C | 86% | 30.1 hPa | 1.78 mm | - | 0 W/m² | - |
| 1777370145 | 17.78° C | 83% | 30.1 hPa | 1.52 mm | - | 0 W/m² | - |
| 1777369845 | 17.78° C | 83% | 30 hPa | 0.25 mm | - | 0 W/m² | - |
| 1777369545 | 17.78° C | 82% | 30 hPa | 0.25 mm | - | 0 W/m² | - |
| 1777369245 | 17.78° C | 81% | 30 hPa | 0.25 mm | - | 0 W/m² | - |
| 1777368945 | 17.78° C | 78% | 30 hPa | 0.25 mm | - | 0 W/m² | - |
| 1777368644 | 17.78° C | 78% | 30 hPa | 0.25 mm | - | 0 W/m² | - |
* Rain latest hour (hover to see other rain measurements)
** Current wind speed in m/s (hover to see current wind gust speed)